Time,TemperatureF,DewpointF,PressureIn,WindDirection,WindDirectionDegrees,WindSpeedMPH,WindSpeedGustMPH,Humidity,HourlyPrecipIn,Conditions,Clouds,dailyrainin,SoftwareType,DateUTC
2013-01-08 00:28:00,32.3,29.0,30.37,SSW,201,0.0,1.0,88,0.00,,,0.00,weatherlink.com 1.10,2013-01-08 05:28:00,
2013-01-08 00:43:00,35.9,32.0,30.37,West,281,1.0,4.0,84,0.00,,,0.00,weatherlink.com 1.10,2013-01-08 05:43:00,
2013-01-08 00:58:00,37.7,32.0,30.38,WSW,239,3.0,5.0,81,0.00,,,0.00,weatherlink.com 1.10,2013-01-08 05:58:00,
2013-01-08 01:13:00,38.7,33.0,30.37,West,266,4.0,6.0,80,0.00,,,0.00,weatherlink.com 1.10,2013-01-08 06:13:00,
2013-01-08 01:28:00,39.1,33.0,30.37,West,277,4.0,5.0,80,0.00,,,0.00,weatherlink.com 1.10,2013-01-08 06:28:00,
2013-01-08 01:43:00,39.8,34.0,30.37,West,266,3.0,6.0,79,0.00,,,0.00,weatherlink.com 1.10,2013-01-08 06:43:00,
2013-01-08 01:58:00,40.0,33.0,30.37,WNW,300,4.0,8.0,76,0.00,,,0.00,weatherlink.com 1.10,2013-01-08 06:58:00,
2013-01-08 02:13:00,40.1,33.0,30.37,West,277,5.0,7.0,76,0.00,,,0.00,weatherlink.com 1.10,2013-01-08 07:13:00,
2013-01-08 02:28:00,40.6,34.0,30.37,West,274,4.0,7.0,78,0.00,,,0.00,weatherlink.com 1.10,2013-01-08 07:28:00,
2013-01-08 02:43:00,39.3,33.0,30.37,WNW,284,4.0,7.0,78,0.00,,,0.00,weatherlink.com 1.10,2013-01-08 07:43:00,
2013-01-08 02:58:00,-999.0,-99.9,30.36,North,-999,-999.0,-999.0,-999,0.00,,,0.00,weatherlink.com 1.10,2013-01-08 07:58:00,
2013-01-08 03:13:00,-999.0,-99.9,30.35,North,-999,-999.0,-999.0,-999,0.00,,,0.00,weatherlink.com 1.10,2013-01-08 08:13:00,
2013-01-08 03:28:00,-999.0,-99.9,30.35,North,-999,-999.0,-999.0,-999,0.00,,,0.00,weatherlink.com 1.10,2013-01-08 08:28:00,
2013-01-08 03:43:00,-999.0,-99.9,30.34,North,-999,-999.0,-999.0,-999,0.00,,,0.00,weatherlink.com 1.10,2013-01-08 08:43:00,
2013-01-08 03:58:00,-999.0,-99.9,30.34,North,-999,-999.0,-999.0,-999,0.00,,,0.00,weatherlink.com 1.10,2013-01-08 08:58:00,
2013-01-08 04:13:00,-999.0,-99.9,30.34,North,-999,-999.0,-999.0,-999,0.00,,,0.00,weatherlink.com 1.10,2013-01-08 09:13:00,
2013-01-08 04:28:00,-999.0,-99.9,30.34,North,-999,-999.0,-999.0,-999,0.00,,,0.00,weatherlink.com 1.10,2013-01-08 09:28:00,
2013-01-08 04:43:00,-999.0,-99.9,30.34,North,-999,-999.0,-999.0,-999,0.00,,,0.00,weatherlink.com 1.10,2013-01-08 09:43:00,
2013-01-08 04:59:00,-999.0,-99.9,30.35,North,-999,-999.0,-999.0,-999,0.00,,,0.00,weatherlink.com 1.10,2013-01-08 09:59:00,
2013-01-08 05:14:00,-999.0,-99.9,30.35,North,-999,-999.0,-999.0,-999,0.00,,,0.00,weatherlink.com 1.10,2013-01-08 10:14:00,
2013-01-08 05:29:00,-999.0,-99.9,30.36,North,-999,-999.0,-999.0,-999,0.00,,,0.00,weatherlink.com 1.10,2013-01-08 10:29:00,
2013-01-08 05:44:00,-999.0,-99.9,30.36,North,-999,-999.0,-999.0,-999,0.00,,,0.00,weatherlink.com 1.10,2013-01-08 10:44:00,
2013-01-08 05:59:00,-999.0,-99.9,30.36,North,-999,-999.0,-999.0,-999,0.00,,,0.00,weatherlink.com 1.10,2013-01-08 10:59:00,
2013-01-08 06:14:00,-999.0,-99.9,30.37,North,-999,-999.0,-999.0,-999,0.00,,,0.00,weatherlink.com 1.10,2013-01-08 11:14:00,
2013-01-08 06:29:00,-999.0,-99.9,30.37,North,-999,-999.0,-999.0,-999,0.00,,,0.00,weatherlink.com 1.10,2013-01-08 11:29:00,
2013-01-08 06:44:00,-999.0,-99.9,30.37,North,-999,-999.0,-999.0,-999,0.00,,,0.00,weatherlink.com 1.10,2013-01-08 11:44:00,
2013-01-08 06:59:00,-999.0,-99.9,30.38,North,-999,-999.0,-999.0,-999,0.00,,,0.00,weatherlink.com 1.10,2013-01-08 11:59:00,
2013-01-08 07:14:00,-999.0,-99.9,30.39,North,-999,-999.0,-999.0,-999,0.00,,,0.00,weatherlink.com 1.10,2013-01-08 12:14:00,
2013-01-08 07:29:00,-999.0,-99.9,30.39,North,-999,-999.0,-999.0,-999,0.00,,,0.00,weatherlink.com 1.10,2013-01-08 12:29:00,
2013-01-08 07:44:00,39.8,35.0,30.40,West,271,5.0,11.0,82,0.00,,,0.00,weatherlink.com 1.10,2013-01-08 12:44:00,
2013-01-08 07:59:00,40.1,35.0,30.40,West,281,5.0,10.0,82,0.00,,,0.00,weatherlink.com 1.10,2013-01-08 12:59:00,
2013-01-08 08:14:00,40.1,35.0,30.41,West,281,5.0,10.0,82,0.00,,,0.00,weatherlink.com 1.10,2013-01-08 13:14:00,
2013-01-08 08:29:00,40.5,35.0,30.41,NW,326,4.0,11.0,82,0.00,,,0.00,weatherlink.com 1.10,2013-01-08 13:29:00,
2013-01-08 08:45:00,40.7,35.0,30.41,West,274,3.0,11.0,79,0.00,,,0.00,weatherlink.com 1.10,2013-01-08 13:45:00,
2013-01-08 08:59:00,40.9,35.0,30.41,West,281,7.0,9.0,78,0.00,,,0.00,weatherlink.com 1.10,2013-01-08 13:59:00,
2013-01-08 09:14:00,41.2,35.0,30.41,NW,304,5.0,9.0,78,0.00,,,0.00,weatherlink.com 1.10,2013-01-08 14:14:00,
2013-01-08 09:30:00,41.6,35.0,30.41,WNW,288,7.0,11.0,78,0.00,,,0.00,weatherlink.com 1.10,2013-01-08 14:30:00,
2013-01-08 09:45:00,41.9,36.0,30.41,West,273,10.0,10.0,79,0.00,,,0.00,weatherlink.com 1.10,2013-01-08 14:45:00,
2013-01-08 10:00:00,42.4,36.0,30.41,WNW,290,4.0,11.0,79,0.00,,,0.00,weatherlink.com 1.10,2013-01-08 15:00:00,
2013-01-08 10:15:00,42.8,36.0,30.40,WNW,293,4.0,12.0,78,0.00,,,0.00,weatherlink.com 1.10,2013-01-08 15:15:00,
2013-01-08 10:30:00,43.1,37.0,30.40,West,269,4.0,12.0,78,0.00,,,0.00,weatherlink.com 1.10,2013-01-08 15:30:00,
2013-01-08 10:45:00,43.3,37.0,30.39,West,277,7.0,11.0,78,0.00,,,0.00,weatherlink.com 1.10,2013-01-08 15:45:00,
2013-01-08 11:00:00,43.5,37.0,30.39,West,281,3.0,10.0,77,0.00,,,0.00,weatherlink.com 1.10,2013-01-08 16:00:00,
2013-01-08 11:15:00,44.2,37.0,30.38,West,281,4.0,9.0,77,0.00,,,0.00,weatherlink.com 1.10,2013-01-08 16:15:00,
2013-01-08 11:30:00,44.5,37.0,30.37,NW,309,4.0,10.0,75,0.00,,,0.00,weatherlink.com 1.10,2013-01-08 16:30:00,
2013-01-08 11:45:00,44.5,38.0,30.36,West,259,5.0,12.0,77,0.00,,,0.00,weatherlink.com 1.10,2013-01-08 16:45:00,
2013-01-08 12:00:00,44.8,38.0,30.35,NW,307,5.0,9.0,76,0.00,,,0.00,weatherlink.com 1.10,2013-01-08 17:00:00,
2013-01-08 12:15:00,45.3,38.0,30.34,WNW,290,2.0,9.0,75,0.00,,,0.00,weatherlink.com 1.10,2013-01-08 17:15:00,
2013-01-08 12:30:00,45.8,37.0,30.34,WNW,302,4.0,11.0,71,0.00,,,0.00,weatherlink.com 1.10,2013-01-08 17:30:00,
2013-01-08 12:45:00,45.4,38.0,30.33,NW,319,4.0,9.0,74,0.00,,,0.00,weatherlink.com 1.10,2013-01-08 17:45:00,
2013-01-08 13:00:00,44.9,38.0,30.32,WNW,290,4.0,11.0,78,0.00,,,0.00,weatherlink.com 1.10,2013-01-08 18:00:00,
2013-01-08 13:15:00,44.9,38.0,30.32,WNW,297,4.0,10.0,77,0.00,,,0.00,weatherlink.com 1.10,2013-01-08 18:15:00,
2013-01-08 13:30:00,44.7,37.0,30.33,NW,319,6.0,11.0,75,0.00,,,0.00,weatherlink.com 1.10,2013-01-08 18:30:00,
2013-01-08 13:45:00,45.5,37.0,30.33,West,274,3.0,11.0,71,0.00,,,0.00,weatherlink.com 1.10,2013-01-08 18:45:00,
2013-01-08 14:00:00,46.1,36.0,30.33,WNW,295,4.0,8.0,68,0.00,,,0.00,weatherlink.com 1.10,2013-01-08 19:00:00,
2013-01-08 14:15:00,44.9,37.0,30.33,West,278,5.0,8.0,75,0.00,,,0.00,weatherlink.com 1.10,2013-01-08 19:15:00,
2013-01-08 14:30:00,45.4,37.0,30.32,WNW,295,4.0,8.0,72,0.00,,,0.00,weatherlink.com 1.10,2013-01-08 19:30:00,
2013-01-08 14:45:00,45.6,37.0,30.33,West,280,3.0,7.0,72,0.00,,,0.00,weatherlink.com 1.10,2013-01-08 19:45:00,
2013-01-08 15:00:00,45.8,37.0,30.32,West,278,3.0,6.0,71,0.00,,,0.00,weatherlink.com 1.10,2013-01-08 20:00:00,
2013-01-08 15:15:00,45.8,36.0,30.32,NNW,330,3.0,6.0,69,0.00,,,0.00,weatherlink.com 1.10,2013-01-08 20:15:00,
2013-01-08 15:30:00,45.3,36.0,30.32,NW,314,2.0,6.0,70,0.00,,,0.00,weatherlink.com 1.10,2013-01-08 20:30:00,
2013-01-08 15:45:00,45.1,35.0,30.32,West,277,3.0,9.0,69,0.00,,,0.00,weatherlink.com 1.10,2013-01-08 20:45:00,
2013-01-08 16:00:00,44.2,35.0,30.32,NW,316,2.0,8.0,71,0.00,,,0.00,weatherlink.com 1.10,2013-01-08 21:00:00,
2013-01-08 16:15:00,43.3,35.0,30.32,WNW,290,3.0,5.0,72,0.00,,,0.00,weatherlink.com 1.10,2013-01-08 21:15:00,
2013-01-08 16:30:00,42.6,35.0,30.32,WNW,302,2.0,4.0,74,0.00,,,0.00,weatherlink.com 1.10,2013-01-08 21:30:00,
2013-01-08 16:45:00,42.0,35.0,30.32,NNW,327,1.0,4.0,75,0.00,,,0.00,weatherlink.com 1.10,2013-01-08 21:45:00,
2013-01-08 17:00:00,41.6,35.0,30.32,NW,307,1.0,3.0,78,0.00,,,0.00,weatherlink.com 1.10,2013-01-08 22:00:00,
2013-01-08 17:15:00,41.3,36.0,30.33,WNW,285,1.0,4.0,81,0.00,,,0.00,weatherlink.com 1.10,2013-01-08 22:15:00,
2013-01-08 17:30:00,41.3,37.0,30.33,WNW,300,2.0,5.0,83,0.00,,,0.00,weatherlink.com 1.10,2013-01-08 22:30:00,
2013-01-08 17:45:00,41.2,37.0,30.34,WNW,293,3.0,6.0,85,0.00,,,0.00,weatherlink.com 1.10,2013-01-08 22:45:00,
2013-01-08 18:00:00,41.9,38.0,30.34,WNW,285,3.0,6.0,85,0.00,,,0.00,weatherlink.com 1.10,2013-01-08 23:00:00,
2013-01-08 18:16:00,42.0,38.0,30.34,NW,304,4.0,7.0,86,0.00,,,0.00,weatherlink.com 1.10,2013-01-08 23:16:00,
2013-01-08 18:30:00,42.2,38.0,30.34,WNW,295,2.0,7.0,86,0.00,,,0.00,weatherlink.com 1.10,2013-01-08 23:30:00,
2013-01-08 18:45:00,41.9,38.0,30.35,West,273,1.0,9.0,86,0.00,,,0.00,weatherlink.com 1.10,2013-01-08 23:45:00,
2013-01-08 19:00:00,41.4,38.0,30.35,WNW,294,2.0,5.0,87,0.00,,,0.00,weatherlink.com 1.10,2013-01-09 00:00:00,
2013-01-08 19:15:00,41.3,38.0,30.35,NW,307,2.0,7.0,87,0.00,,,0.00,weatherlink.com 1.10,2013-01-09 00:15:00,
2013-01-08 19:30:00,41.1,38.0,30.36,WNW,301,3.0,5.0,87,0.00,,,0.00,weatherlink.com 1.10,2013-01-09 00:30:00,
2013-01-08 19:45:00,41.0,37.0,30.36,North,355,3.0,4.0,86,0.00,,,0.00,weatherlink.com 1.10,2013-01-09 00:45:00,
2013-01-08 20:00:00,40.3,37.0,30.36,WNW,300,0.0,3.0,86,0.00,,,0.00,weatherlink.com 1.10,2013-01-09 01:00:00,
2013-01-08 20:15:00,39.4,37.0,30.36,NW,315,2.0,2.0,89,0.00,,,0.00,weatherlink.com 1.10,2013-01-09 01:15:00,
2013-01-08 20:30:00,39.7,37.0,30.36,NW,304,0.0,2.0,90,0.00,,,0.00,weatherlink.com 1.10,2013-01-09 01:30:00,
2013-01-08 20:45:00,39.7,37.0,30.36,NNW,345,1.0,3.0,90,0.00,,,0.00,weatherlink.com 1.10,2013-01-09 01:45:00,
2013-01-08 21:00:00,39.7,37.0,30.37,WNW,302,0.0,3.0,89,0.00,,,0.00,weatherlink.com 1.10,2013-01-09 02:00:00,
2013-01-08 21:15:00,39.2,36.0,30.37,NW,314,0.0,2.0,89,0.00,,,0.00,weatherlink.com 1.10,2013-01-09 02:15:00,
2013-01-08 21:31:00,38.9,36.0,30.37,NW,307,1.0,2.0,90,0.00,,,0.00,weatherlink.com 1.10,2013-01-09 02:31:00,
2013-01-08 21:45:00,39.1,37.0,30.37,NW,315,2.0,2.0,91,0.00,,,0.00,weatherlink.com 1.10,2013-01-09 02:45:00,
2013-01-08 22:01:00,39.2,37.0,30.36,NW,318,1.0,3.0,91,0.00,,,0.00,weatherlink.com 1.10,2013-01-09 03:01:00,
2013-01-08 22:16:00,39.3,37.0,30.36,NW,314,0.0,3.0,92,0.00,,,0.00,weatherlink.com 1.10,2013-01-09 03:16:00,
2013-01-08 22:31:00,39.1,37.0,30.36,NW,316,0.0,0.0,92,0.00,,,0.00,weatherlink.com 1.10,2013-01-09 03:31:00,
2013-01-08 22:46:00,38.6,37.0,30.37,NW,314,0.0,0.0,92,0.00,,,0.00,weatherlink.com 1.10,2013-01-09 03:46:00,
2013-01-08 23:01:00,38.2,36.0,30.36,NW,315,0.0,1.0,92,0.00,,,0.00,weatherlink.com 1.10,2013-01-09 04:01:00,
2013-01-08 23:16:00,38.3,37.0,30.37,NNW,331,0.0,2.0,93,0.00,,,0.00,weatherlink.com 1.10,2013-01-09 04:16:00,
2013-01-08 23:31:00,39.0,38.0,30.36,WNW,294,1.0,3.0,94,0.00,,,0.00,weatherlink.com 1.10,2013-01-09 04:31:00,
2013-01-08 23:46:00,39.4,38.0,30.36,NW,326,1.0,3.0,94,0.00,,,0.00,weatherlink.com 1.10,2013-01-09 04:46:00,